NOAA 16 DEB, 41372

Orbit data source: Space-Track

NOAA 16 DEB, 41372 is space debris in SSO originally from a launch on Thu, 21 Sep 2000 UTC launched from the Air Force Western Test Range (AFWTR). Debris objects in space refer to the collection of defunct objects orbiting the Earth. Examples of debris include non-operational satellites, rocket bodies, and fragments generated from explosions, collisions, or faulty payload assembly.

Loading next visibility...
Identifier
41372, 2000-055JR
Orbit
SSO
Country
Flag of USUS
Related business
Manufacturer
Unknown
Mission
Spacecraft
Bus & Motor
Unknown
Mass
Unknown
Launch date (UTC)
2000-09-21 (26 years ago)
Launch vehicle
Unknown
Launch site
Air Force Western Test Range (AFWTR)
Object type
Payload
Rocket body
Debris
Shape & HBR
Unknown shape, 0.1 m
Radar Cross Section
Medium (>0.1 m² and <1 m²)

Expand to show TLE details & history
Last TLE update: 3 days ago

TLE from 3 days ago
0 NOAA 16 DEB
1 41372U 00055JR  26170.12329128  .00010750  00000-0  17334-2 0  9994
2 41372  98.9816 111.9342 0041594 317.3065  42.4909 14.71076699546406
Epoch: 2026-06-19T02:57Z
TLE epoch observation values (Epoch: 2026-06-19T02:57:32.366Z)
Latitude
-0.00003°
Longitude
160.19256°
Altitude
639.08 km
Speed
7.55 km/s
True Right ascension
07h 27m 44s
True Declination
0° 00' 00"
Sunlit
Object was in daylight at epoch
Visualization orbit readout
Latitude
Unknown
Longitude
Unknown
Altitude
Unknown
Speed
Unknown
Apparent Right ascension
Unknown
Apparent Declination
Unknown
Sunlit
N/A
Visualization observer readout
Local Sidereal Time
23:18:54
Azimuth
Unknown
Elevation
Unknown
Doppler factor
Unknown
Orbital elements
Apogee altitude
683.99 km
Perigee altitude
625.485 km
Semi-major axis
7,032.874 km
Eccentricity
0.00416
Inclination
98.9816°
RAAN
111.9342°
Arg. of periapsis
317.3065°
True anomaly
42.81409°
Mean anomaly
42.4909°
Eccentric anomaly
42.65237°
Mean motion
3.67997 °/min
Orbital period
97.83 mins
BSTAR
0.0017334
Loading maneuver chart data...
Computing Atmospheric mass density...
Loading historical data...
Loading historical data...
Loading historical data...
Loading historical data...
Loading historical data...
Loading historical data...
Loading historical data...

Documentation

Showing up to 5 results
|